Hattiesburg, MS

10:35 PM CDT on May 26, 2018 (GMT -0500)
Chain Municipal

Weather History for KHBG - January, 2003

Change the Weather History Date:

Tuesday, January 14, 2003

  Actual Average Record
Temperature  
Mean Temperature 43 °F 48 °F  
Max Temperature 59 °F 60 °F 79 °F (1972)
Min Temperature 27 °F 37 °F 17 °F (1964)
Degree Days  
Heating Degree Days 22 17  
Month to date heating degree days 231  
Since 1 July heating degree days 1016  
Cooling Degree Days 0 0  
Month to date cooling degree days 0  
Year to date cooling degree days 0  
Moisture  
Dew Point 32 °F    
Average Humidity 72    
Maximum Humidity 96    
Minimum Humidity 38    
Precipitation  
Precipitation 0.00 in 0.16 in 2.57 in (1977)
Month to date precipitation 2.51  
Year to date precipitation 2.51  
Sea Level Pressure  
Sea Level Pressure 30.34 in    
Wind  
Wind Speed 3 mph (NNW)    
Max Wind Speed 13 mph    
Max Gust Speed -    
Visibility 9 miles    
Events      
T = Trace of Precipitation, MM = Missing Value Source: NWS Daily Summary

Daily Weather History Graph

Daily Weather History Graph

Search for Another Location

Airport or City:

Astronomy

Jan. 14, 2003 Rise Set
Actual Time 6:56 AM CST 5:15 PM CST
Civil Twilight 6:30 AM CST 5:42 PM CST
Nautical Twilight 6:00 AM CST 6:11 PM CST
Astronomical Twilight 5:31 AM CST 6:41 PM CST
Moon 2:02 PM CST (1/14) 3:32 AM CST (1/14)
Length of Visible Light 11h 11m
Length of Day
10h 19m
Waxing Gibbous, 86% of the Moon is Illuminated
Jan 14
Waxing Gibbous
Jan 18
Full
Jan 25
Last Quarter
Feb 1
New
Feb 9
First Quarter

Hourly Weather History & Observations

Time (CST) Temp. Windchill Dew Point Humidity Pressure Visibility Wind Dir Wind Speed Gust Speed Precip Events Conditions
12:53 AM 30.0 °F - 27.0 °F 88% 30.32 in 10.0 mi Calm Calm - N/A   Clear
1:53 AM 30.0 °F - 28.9 °F 96% 30.33 in 10.0 mi Calm Calm - N/A   Clear
2:53 AM 30.0 °F - 28.0 °F 92% 30.34 in 10.0 mi Calm Calm - N/A   Clear
3:53 AM 30.0 °F - 27.0 °F 88% 30.33 in 10.0 mi Calm Calm - N/A   Clear
4:53 AM 28.0 °F - 27.0 °F 96% 30.33 in 10.0 mi Calm Calm - N/A   Clear
5:53 AM 28.0 °F - 25.0 °F 88% 30.35 in 10.0 mi Calm Calm - N/A   Clear
6:53 AM 27.0 °F - 25.0 °F 92% 30.36 in 8.0 mi Calm Calm - N/A   Clear
7:53 AM 30.0 °F - 27.0 °F 88% 30.35 in 7.0 mi Calm Calm - N/A   Clear
8:53 AM 37.9 °F - 32.0 °F 79% 30.36 in 8.0 mi Calm Calm - N/A   Clear
9:53 AM 45.0 °F 41.8 °F 33.1 °F 63% 30.37 in 10.0 mi North 5.8 mph - N/A   Clear
10:53 AM 48.0 °F - 33.1 °F 56% 30.37 in 10.0 mi NNW 6.9 mph - N/A   Clear
11:53 AM 51.1 °F - 33.1 °F 50% 30.34 in 10.0 mi Variable 4.6 mph - N/A   Clear
12:53 PM 54.0 °F - 34.0 °F 47% 30.30 in 10.0 mi Variable 4.6 mph - N/A   Clear
1:53 PM 57.9 °F - 34.0 °F 41% 30.27 in 10.0 mi NW 8.1 mph - N/A   Clear
2:53 PM 59.0 °F - 33.1 °F 38% 30.26 in 10.0 mi WNW 5.8 mph - N/A   Clear
3:53 PM 59.0 °F - 34.0 °F 39% 30.27 in 10.0 mi Variable 5.8 mph - N/A   Clear
4:53 PM 55.9 °F - 35.1 °F 45% 30.28 in 10.0 mi NW 5.8 mph - N/A   Clear
5:53 PM 48.9 °F - 36.0 °F 61% 30.29 in 10.0 mi West 3.5 mph - N/A   Clear
6:53 PM 50.0 °F - 36.0 °F 59% 30.32 in 10.0 mi NNW 12.7 mph - N/A   Clear
7:53 PM 45.0 °F 40.6 °F 35.1 °F 68% 30.34 in 10.0 mi NW 8.1 mph - N/A   Clear
8:53 PM 42.1 °F 37.7 °F 34.0 °F 73% 30.37 in 10.0 mi North 6.9 mph - N/A   Clear
9:53 PM 37.9 °F 30.9 °F 33.1 °F 83% 30.38 in 7.0 mi NNW 10.4 mph - N/A   Clear
10:19 PM 37.4 °F 30.8 °F 33.8 °F 87% 30.39 in 5.0 mi NNW 9.2 mph - N/A   Mostly Cloudy
10:32 PM 37.4 °F 30.3 °F 33.8 °F 87% 30.40 in 5.0 mi North 10.4 mph - N/A   Overcast
10:53 PM 37.9 °F 31.5 °F 34.0 °F 86% 30.40 in 5.0 mi North 9.2 mph - N/A   Overcast
11:53 PM 37.9 °F 31.5 °F 34.0 °F 86% 30.40 in 5.0 mi North 9.2 mph - N/A   Overcast